[[{"header":{"parameterUnit":"m.s-1","parameterCategory":2,"la1":30.2991,"la2":30.254,"lo1":-89.0895,"lo2":-89.0444,"dy":0.0017,"dx":0.0017,"nx":28,"ny":28,"refTime":"2025-05-15T03:00:00:Z","depth":"0","parameterNumber":2,"parameterNumberName":"U-component_of_CURRENTS"},"data":[0,0,0,0,0,0,0,0,0,0,0,0,0,0,0,0,0,0,0,0,0,0,0,0,0,0,0,0,0,0,0,0,0,0,0,0,0,0,0,0,0,0,0,0,0,0,0,0,0,0,0,0,0,0,0,0,0,0,0.3355,0.3356,0,0.3454,0.3455,0.3456,0.3452,0.345,0.3449,0.3447,0.3578,0.3583,0.3588,0,0,0,0,0,0,0,0,0,0,0,0,0,0.3286,0.3287,0.3355,0.3356,0.3357,0.3453,0.3455,0.3457,0.3452,0.345,0.3448,0.3446,0.3577,0.3583,0.3589,0,0,0,0,0,0,0,0,0,0,0,0,0,0.3346,0.3287,0.3355,0.3364,0.3365,0.3453,0.3455,0.3457,0.3453,0.345,0.3448,0.3445,0.3575,0.3582,0.359,0.3688,0,0,0.3613,0.3616,0,0,0,0,0,0,0,0,0.3343,0.3349,0.3362,0.3363,0.3365,0.3435,0.3479,0.3535,0.3453,0.3423,0.3447,0.3444,0.3533,0.3544,0.3573,0.3694,0.37,0.3614,0.3618,0.3622,0.3624,0,0,0,0,0,0,0,0.3338,0.3346,0.3398,0.3363,0.3365,0.3405,0.341,0.349,0.3495,0.3426,0.3425,0.3431,0.3534,0.3565,0.3576,0.3702,0.3613,0.362,0.3625,0.3628,0.3925,0.3928,0,0,0,0,0,0,0.3316,0.3341,0.3394,0.34,0.3344,0.3407,0.3413,0.3418,0.3493,0.3501,0.3433,0.343,0.3554,0.3567,0.358,0.3726,0.3621,0.3629,0.3633,0.3922,0.3926,0.3929,0,0,0,0,0,0,0.3314,0.332,0.339,0.337,0.3381,0.341,0.3416,0.3421,0.3446,0.3498,0.3506,0.3451,0.3552,0.357,0.3673,0.373,0.3632,0.3639,0.3918,0.3923,0.3928,0.4003,0,0,0,0,0,0,0.3312,0.3319,0.3324,0.3369,0.3381,0.345,0.3419,0.3425,0.3452,0.345,0.3517,0.3526,0.3551,0.3662,0.3681,0.3739,0.3645,0.3914,0.392,0.3926,0.3996,0.401,0.4021,0,0,0,0,0,0.3309,0.332,0.3324,0.333,0.3384,0.3452,0.3464,0.3477,0.3456,0.3487,0.3537,0.3524,0.3713,0.3672,0.3693,0.3754,0.3911,0.3918,0.3925,0.399,0.4007,0.4021,0,0,0,0,0,0,0.3294,0.3322,0.3326,0.3345,0.3398,0.3449,0.3473,0.3485,0.355,0.3543,0.3581,0.3598,0.3712,0.3729,0.3681,0.3858,0.3805,0.3817,0.3847,0.3863,0.3876,0.3845,0.3651,0,0,0,0,0,0.3294,0.3308,0.3354,0.3374,0.3395,0.3438,0.3465,0.3482,0.3537,0.356,0.362,0.3682,0.3766,0.3805,0.3883,0.3986,0.3975,0.4036,0.4048,0.4059,0.405,0.41,0.4116,0.3954,0.3954,0.3954,0,0,0.3292,0.3311,0.3318,0.3372,0.3406,0.3467,0.3449,0.3496,0.3558,0.3571,0.3682,0.3741,0.3807,0.3925,0.3975,0.394,0.4101,0.4068,0.4076,0.4061,0.411,0.4125,0.4138,0.3959,0.3958,0.3957,0,0,0.3304,0.3315,0.3335,0.3385,0.344,0.3485,0.3499,0.3572,0.3611,0.3728,0.3755,0.3843,0.3972,0.4032,0.4075,0.4206,0.4174,0.423,0.4264,0.4315,0.4327,0.4338,0.4338,0.4348,0.4226,0.4226,0.4226,0,0.3301,0.3332,0.3358,0.3404,0.3446,0.3493,0.3548,0.3617,0.3723,0.3768,0.3768,0.3963,0.4023,0.415,0.4198,0.4234,0.4233,0.4198,0.4328,0.4338,0.4348,0.4345,0.4356,0.423,0.423,0.4229,0.4229,0,0.3337,0.337,0.3391,0.3464,0.3525,0.3578,0.3668,0.3743,0.3796,0.3861,0.3999,0.4091,0.4183,0.4238,0.4263,0.4376,0.4343,0.4343,0.4278,0.4368,0.436,0.437,0.4237,0.4235,0.4234,0.4233,0,0,0.3304,0.3395,0.3402,0.3442,0.3556,0.3606,0.3723,0.3837,0.39,0.4016,0.4107,0.4263,0.4279,0.4328,0.4375,0.4432,0.4515,0.4416,0.4416,0.4394,0.459,0.4477,0.4475,0.4534,0.4536,0.4538,0.4552,0,0.3325,0.3398,0.3454,0.3551,0.3601,0.3689,0.3798,0.3907,0.4001,0.4113,0.4202,0.4318,0.4323,0.4374,0.4431,0.4521,0.4544,0.4508,0.4523,0.4522,0.4395,0.4485,0.4353,0.4348,0.4561,0.4562,0.4564,0,0.3341,0.339,0.3464,0.3585,0.3615,0.3689,0.3835,0.3942,0.41,0.4167,0.4263,0.434,0.4468,0.4447,0.4577,0.4553,0.456,0.4602,0.4603,0.4472,0.4427,0.4297,0.4356,0.4304,0.4577,0.4576,0.4575,0,0.3288,0.34,0.3451,0.3493,0.364,0.3691,0.3785,0.3944,0.4042,0.4193,0.4274,0.4399,0.4487,0.4541,0.462,0.4607,0.4733,0.4721,0.4607,0.4598,0.4473,0.4448,0.4462,0.4764,0.4764,0.4764,0.4763,0,0.3281,0.3324,0.3421,0.3447,0.3535,0.3651,0.3763,0.3868,0.4031,0.4153,0.428,0.4389,0.4519,0.4613,0.4639,0.4652,0.4734,0.4618,0.4606,0.4495,0.4473,0.4409,0.4377,0.4764,0.4764,0.4764,0.4764,0,0.3214,0.3274,0.3338,0.3463,0.3504,0.3564,0.3741,0.3835,0.3984,0.4144,0.4201,0.4407,0.4524,0.461,0.4717,0.4672,0.4582,0.4664,0.4498,0.4465,0.4279,0.4256,0.4043,0.3932,0.4541,0.4539,0.4536,0,0.3184,0.3203,0.3314,0.3358,0.3409,0.3516,0.3609,0.3781,0.3887,0.4152,0.4229,0.4401,0.4497,0.4594,0.4576,0.4562,0.4475,0.4397,0.4345,0.4252,0.4221,0.4061,0.3973,0.4214,0.421,0.4206,0.4203,0,0.3132,0.316,0.3212,0.3301,0.3379,0.3471,0.3606,0.3673,0.3894,0.4018,0.4189,0.4289,0.4411,0.4368,0.435,0.4329,0.4212,0.4313,0.429,0.4018,0.3774,0.3666,0.4196,0.4169,0.4173,0.4175,0.4177,0.4178,0.3083,0.3101,0.3169,0.3248,0.3333,0.34,0.3422,0.3563,0.3675,0.3811,0.4014,0.4072,0.4188,0.4157,0.4105,0.3973,0.394,0.3879,0.3873,0.3731,0.3568,0.3987,0.3902,0.3904,0.3905,0.3906,0.3908,0,0.3016,0.3054,0.3127,0.3194,0.3228,0.3306,0.3404,0.3386,0.3424,0.3588,0.3674,0.3759,0.3735,0.3792,0.3756,0.361,0.3441,0.3511,0.3314,0.3262,0.3723,0.3659,0.3429,0.3429,0.3429,0.3429,0.343,0.343,0.2988,0.3007,0.3046,0.3065,0.3101,0.3071,0.3072,0.3055,0.3116,0.312,0.3152,0.3255,0.3522,0.3606,0.3506,0.3404,0.3193,0.2992,0.2994,0.3416,0.3452,0.3486,0.3423,0.3147,0.3146,0.242,0.2415,0.2411]},{"header":{"parameterUnit":"m.s-1","parameterCategory":2,"la1":30.2991,"la2":30.254,"lo1":-89.0895,"lo2":-89.0444,"dy":0.0017,"dx":0.0017,"nx":28,"ny":28,"refTime":"2025-05-15T03:00:00:Z","depth":"0","parameterNumber":3,"parameterNumberName":"V-component_of_CURRENTS"},"data":[0,0,0,0,0,0,0,0,0,0,0,0,0,0,0,0,0,0,0,0,0,0,0,0,0,0,0,0,0,0,0,0,0,0,0,0,0,0,0,0,0,0,0,0,0,0,0,0,0,0,0,0,0,0,0,0,0,0,0.0159,0.0158,0,0.0103,0.0102,0.0102,0.0061,0.006,0.006,0.0059,0.0057,0.0058,0.0058,0,0,0,0,0,0,0,0,0,0,0,0,0,0.0216,0.0216,0.0159,0.0158,0.0157,0.0103,0.0102,0.0102,0.0061,0.006,0.006,0.0059,0.0057,0.0058,0.0058,0,0,0,0,0,0,0,0,0,0,0,0,0,0.0181,0.0216,0.0159,0.0128,0.0125,0.0103,0.0102,0.0102,0.0061,0.006,0.0059,0.0058,0.0057,0.0058,0.0058,0.0081,0,0,0.0061,0.0061,0,0,0,0,0,0,0,0,0.0184,0.018,0.0134,0.013,0.0126,0.0086,0.0122,0.0096,0.0061,0.0088,0.0059,0.0058,0.0071,0.007,0.0065,0.0081,0.008,0.0061,0.0061,0.0062,0.0062,0,0,0,0,0,0,0,0.0186,0.0182,0.0139,0.0133,0.0128,0.0112,0.0107,0.0117,0.0088,0.0086,0.0082,0.0072,0.0069,0.0064,0.0064,0.008,0.0061,0.0061,0.0062,0.0062,0.0135,0.0136,0,0,0,0,0,0,0.019,0.0184,0.0141,0.0137,0.015,0.0112,0.0106,0.0102,0.0087,0.0082,0.0073,0.007,0.0063,0.0064,0.0064,0.0123,0.0062,0.0062,0.0063,0.0133,0.0135,0.0137,0,0,0,0,0,0,0.0191,0.0187,0.0143,0.0157,0.015,0.0111,0.0108,0.0101,0.0095,0.0076,0.0073,0.0073,0.0062,0.0063,0.0087,0.0121,0.0063,0.0063,0.0131,0.0134,0.0136,0.0219,0,0,0,0,0,0,0.0193,0.0188,0.0192,0.0158,0.0149,0.0142,0.0108,0.01,0.0089,0.0085,0.0076,0.0074,0.0062,0.0086,0.0088,0.0121,0.0064,0.013,0.0132,0.0135,0.0215,0.0224,0.0232,0,0,0,0,0,0.0196,0.0206,0.0193,0.0188,0.0155,0.0143,0.0139,0.0109,0.009,0.0099,0.0094,0.0074,0.0104,0.0088,0.009,0.0124,0.0128,0.0132,0.0135,0.0211,0.0222,0.0232,0,0,0,0,0,0,0.0234,0.0202,0.0187,0.0187,0.0171,0.0135,0.0137,0.0116,0.0117,0.0116,0.0096,0.0096,0.0126,0.0116,0.0098,0.0152,0.0112,0.0116,0.0169,0.018,0.0189,0.0208,0.0064,0,0,0,0,0,0.0245,0.0244,0.0212,0.0214,0.0207,0.0174,0.0166,0.0148,0.0138,0.0136,0.0132,0.0132,0.0142,0.0153,0.0156,0.0193,0.0163,0.0214,0.0223,0.0231,0.0248,0.0235,0.0244,0.0147,0.0147,0.0147,0,0,0.0258,0.0242,0.024,0.0223,0.0205,0.0223,0.0168,0.0163,0.0188,0.0139,0.018,0.0162,0.0156,0.0192,0.0206,0.019,0.0239,0.0235,0.0242,0.0254,0.024,0.0249,0.0257,0.015,0.0149,0.0149,0,0,0.0294,0.0273,0.0289,0.0283,0.0264,0.0257,0.0259,0.0237,0.0236,0.0265,0.0236,0.0243,0.0261,0.0264,0.0268,0.033,0.028,0.0327,0.0396,0.0384,0.0392,0.0398,0.0355,0.0357,0.0338,0.0338,0.0338,0,0.0313,0.0328,0.0293,0.0312,0.0323,0.028,0.0317,0.0314,0.0308,0.0327,0.0293,0.0317,0.0301,0.035,0.0363,0.0352,0.0322,0.0356,0.0395,0.0401,0.0407,0.0361,0.0362,0.0342,0.0342,0.0342,0.0341,0,0.0362,0.0378,0.0388,0.0408,0.0422,0.0439,0.0436,0.0455,0.0448,0.0448,0.048,0.0448,0.0461,0.0454,0.0427,0.0466,0.0422,0.0401,0.0368,0.0421,0.0369,0.0369,0.0349,0.0347,0.0346,0.0345,0,0,0.04,0.042,0.0425,0.0459,0.0474,0.0497,0.0548,0.0589,0.0632,0.0615,0.0667,0.0656,0.0617,0.0616,0.0574,0.0562,0.0554,0.0502,0.0499,0.0458,0.0502,0.0448,0.0442,0.0535,0.0536,0.0537,0.0444,0,0.0453,0.0513,0.0515,0.0599,0.0638,0.0636,0.0699,0.0733,0.0741,0.0781,0.0743,0.0772,0.0685,0.0687,0.0659,0.0591,0.056,0.058,0.0459,0.0455,0.04,0.0443,0.0469,0.0387,0.0443,0.0443,0.0443,0,0.051,0.0545,0.0625,0.071,0.0729,0.078,0.0873,0.0921,0.0959,0.0963,0.0962,0.0922,0.0907,0.0818,0.0718,0.0731,0.0623,0.0555,0.0549,0.0475,0.0402,0.0347,0.0384,0.0252,0.0442,0.0442,0.0442,0,0.0565,0.0636,0.0707,0.0729,0.0809,0.0861,0.0919,0.098,0.105,0.1076,0.112,0.1066,0.1059,0.0931,0.0764,0.0746,0.0639,0.0595,0.0439,0.0432,0.0421,0.0412,0.032,0.0518,0.0518,0.0519,0.0519,0,0.0629,0.0688,0.0736,0.0773,0.0895,0.0929,0.1062,0.1097,0.1177,0.1293,0.1213,0.127,0.1089,0.1,0.0819,0.0629,0.0672,0.0461,0.0418,0.0447,0.0442,0.0298,0.0184,0.0515,0.0516,0.0517,0.0517,0,0.0681,0.0701,0.0792,0.0878,0.0919,0.1009,0.1165,0.1267,0.1312,0.1452,0.1474,0.1436,0.1317,0.1103,0.09,0.0718,0.043,0.0444,0.0471,0.0433,0.0163,0.0052,-0.0128,-0.0213,0.0269,0.0268,0.0266,0,0.0713,0.0757,0.0865,0.094,0.0983,0.1119,0.1236,0.1328,0.1447,0.1569,0.1653,0.1575,0.155,0.1203,0.0869,0.054,0.037,0.0336,0.0309,0.0163,0.0007,-0.0063,-0.0126,0.0312,0.0311,0.031,0.031,0,0.0778,0.0804,0.0877,0.1029,0.1153,0.131,0.1473,0.1588,0.1726,0.1837,0.1953,0.1937,0.1608,0.1301,0.0831,0.0593,0.0229,0.0309,0.0173,0.0047,-0.0047,-0.0153,0.0329,0.0303,0.0304,0.0304,0.0305,0.0305,0.0825,0.0889,0.0986,0.1141,0.1291,0.149,0.164,0.1816,0.2016,0.2197,0.2164,0.2179,0.1731,0.1099,0.075,0.018,0.0146,0.0029,-0.0093,-0.0148,-0.0227,0.0219,0.0136,0.0136,0.0135,0.0135,0.0135,0,0.0891,0.0969,0.1107,0.1292,0.1473,0.154,0.1801,0.1963,0.2206,0.2344,0.2424,0.2233,0.166,0.1084,0.03,-0.0106,-0.0251,-0.0332,-0.0399,-0.0444,-0.0016,-0.0007,-0.014,-0.014,-0.014,-0.014,-0.0139,-0.0139,0.0928,0.1055,0.1128,0.1414,0.156,0.1811,0.1966,0.2194,0.2353,0.253,0.2557,0.2542,0.2141,0.0707,-0.0204,-0.0433,-0.0703,-0.0795,-0.0942,-0.0617,-0.059,-0.0565,-0.0577,-0.0828,-0.0829,-0.1268,-0.1273,-0.1277]}],[{"header":{"parameterUnit":"m.s-1","parameterCategory":2,"la1":30.2991,"la2":30.254,"lo1":-89.0895,"lo2":-89.0444,"dy":0.0017,"dx":0.0017,"nx":28,"ny":28,"refTime":"2025-05-15T03:00:00:Z","depth":"2","parameterNumber":2,"parameterNumberName":"U-component_of_CURRENTS"},"data":[0,0,0,0,0,0,0,0,0,0,0,0,0,0,0,0,0,0,0,0,0,0,0,0,0,0,0,0,0,0,0,0,0,0,0,0,0,0,0,0,0,0,0,0,0,0,0,0,0,0,0,0,0,0,0,0,0,0,0.3127,0.3127,0,0.3176,0.3176,0.3177,0.3176,0.3175,0.3174,0.3174,0.3298,0.3302,0.3306,0,0,0,0,0,0,0,0,0,0,0,0,0,0.3079,0.308,0.3127,0.3127,0.3128,0.3176,0.3176,0.3177,0.3176,0.3175,0.3174,0.3173,0.3297,0.3302,0.3306,0,0,0,0,0,0,0,0,0,0,0,0,0,0.3111,0.308,0.3126,0.3133,0.3134,0.3175,0.3176,0.3177,0.3176,0.3175,0.3174,0.3173,0.3295,0.3301,0.3307,0.3363,0,0,0.3325,0.3327,0,0,0,0,0,0,0,0,0.3109,0.3113,0.3132,0.3133,0.3134,0.3169,0.3205,0.3243,0.3176,0.316,0.3174,0.3172,0.3263,0.3271,0.3281,0.3368,0.3374,0.3325,0.3329,0.3331,0.3333,0,0,0,0,0,0,0,0.3107,0.3111,0.3146,0.3132,0.3134,0.315,0.3153,0.3212,0.3217,0.3161,0.3161,0.3167,0.3264,0.3275,0.3284,0.3376,0.3325,0.333,0.3334,0.3336,0.3531,0.3532,0,0,0,0,0,0,0.31,0.3109,0.3144,0.3147,0.3119,0.3151,0.3155,0.3158,0.3215,0.3222,0.3168,0.3167,0.3266,0.3277,0.3289,0.3425,0.3331,0.3337,0.334,0.3529,0.3531,0.3533,0,0,0,0,0,0,0.3099,0.3103,0.3142,0.3129,0.3135,0.3153,0.3157,0.316,0.3178,0.322,0.3228,0.3184,0.3266,0.3281,0.3365,0.3427,0.334,0.3345,0.3527,0.353,0.3532,0.3655,0,0,0,0,0,0,0.3097,0.3102,0.3109,0.3129,0.3136,0.3183,0.3158,0.3161,0.3183,0.3183,0.3237,0.3246,0.3266,0.3356,0.3371,0.3434,0.3349,0.3525,0.3528,0.3531,0.3649,0.3662,0.3672,0,0,0,0,0,0.3095,0.3106,0.3109,0.3114,0.3142,0.3185,0.3191,0.3199,0.3185,0.3209,0.3248,0.3245,0.3385,0.3364,0.338,0.3446,0.3523,0.3527,0.3531,0.3644,0.3659,0.3672,0,0,0,0,0,0,0.3089,0.3107,0.3111,0.3126,0.3162,0.3185,0.3203,0.3209,0.3255,0.3257,0.3285,0.33,0.3405,0.3396,0.3371,0.3503,0.3447,0.3454,0.3527,0.3542,0.3553,0.3527,0.3354,0,0,0,0,0,0.3092,0.3103,0.3132,0.3148,0.3164,0.3186,0.3204,0.3216,0.3255,0.3272,0.3315,0.3358,0.3432,0.3461,0.3522,0.3595,0.3575,0.3638,0.365,0.366,0.3646,0.3692,0.3707,0.3545,0.3545,0.3545,0,0,0.3092,0.3105,0.3111,0.3149,0.317,0.3212,0.3195,0.3231,0.3275,0.3284,0.3363,0.3422,0.3465,0.3563,0.3603,0.3561,0.3694,0.3664,0.3674,0.3653,0.3697,0.3713,0.3727,0.3547,0.3547,0.3546,0,0,0.3103,0.3114,0.3131,0.3164,0.3206,0.3234,0.3248,0.3293,0.332,0.3409,0.3435,0.3517,0.361,0.3658,0.3692,0.3794,0.3772,0.3814,0.3842,0.3889,0.3903,0.3915,0.3907,0.3917,0.3799,0.3799,0.3799,0,0.3104,0.3126,0.3147,0.318,0.321,0.3247,0.3286,0.3332,0.3404,0.3442,0.3446,0.3604,0.3654,0.3763,0.3806,0.3826,0.3825,0.3796,0.3906,0.3917,0.3927,0.3916,0.3926,0.3806,0.3805,0.3804,0.3804,0,0.313,0.3155,0.3172,0.3226,0.3271,0.3311,0.3376,0.3435,0.348,0.3526,0.365,0.3723,0.38,0.3847,0.3869,0.3972,0.394,0.3938,0.3875,0.3952,0.3934,0.3942,0.3815,0.3812,0.3811,0.3809,0,0,0.3108,0.3174,0.318,0.3209,0.3295,0.3332,0.3425,0.3513,0.3571,0.366,0.3736,0.3877,0.3903,0.3939,0.3981,0.4022,0.4114,0.4011,0.4011,0.4008,0.4185,0.4105,0.4105,0.4144,0.4146,0.4148,0.4143,0,0.3121,0.3174,0.3215,0.3287,0.3323,0.3396,0.348,0.357,0.3654,0.3746,0.3823,0.3927,0.394,0.3998,0.4047,0.4123,0.414,0.4112,0.4104,0.4102,0.4028,0.4114,0.3806,0.3773,0.4151,0.4152,0.4153,0,0.3129,0.3166,0.322,0.3312,0.3335,0.3393,0.3522,0.3605,0.3744,0.3809,0.3905,0.3971,0.408,0.4066,0.4176,0.4163,0.4171,0.4197,0.4197,0.4079,0.4038,0.3756,0.3772,0.4165,0.4164,0.4163,0.4162,0,0.3088,0.317,0.3207,0.3237,0.3351,0.3398,0.3479,0.362,0.37,0.3848,0.3923,0.4036,0.4116,0.4161,0.4225,0.4216,0.4314,0.43,0.4211,0.4203,0.3911,0.3874,0.4335,0.4335,0.4335,0.4335,0.4335,0,0.3075,0.3107,0.3186,0.3203,0.3274,0.3371,0.347,0.3571,0.3716,0.3816,0.3943,0.4032,0.4153,0.4228,0.4243,0.4257,0.4322,0.4221,0.4211,0.3944,0.3912,0.4223,0.421,0.4334,0.4334,0.4334,0.4335,0,0.3019,0.3066,0.3112,0.3214,0.3248,0.3301,0.345,0.3531,0.368,0.3814,0.3867,0.4057,0.4166,0.4236,0.4324,0.4283,0.4299,0.4267,0.3925,0.3876,0.4139,0.4132,0.4168,0.4166,0.4164,0.4162,0.416,0,0.2991,0.3004,0.3092,0.3122,0.3163,0.3255,0.3329,0.349,0.3575,0.3816,0.3868,0.4039,0.4124,0.4214,0.4185,0.4166,0.4252,0.3849,0.3778,0.4142,0.4129,0.4126,0.4123,0.3427,0.3419,0.3413,0.3408,0,0.294,0.2965,0.3,0.3061,0.3121,0.3191,0.33,0.3346,0.3545,0.3653,0.3796,0.3888,0.401,0.3884,0.3887,0.3832,0.3836,0.3726,0.4206,0.3535,0.3448,0.3435,0.3454,0.3355,0.336,0.3364,0.3367,0.3369,0.2894,0.29,0.2943,0.2996,0.3059,0.3097,0.3101,0.3214,0.3297,0.3405,0.359,0.3609,0.3669,0.3528,0.3407,0.3304,0.3572,0.3396,0.3412,0.3435,0.3369,0.3286,0.3145,0.3149,0.3152,0.3155,0.3158,0,0.2826,0.2845,0.2886,0.2917,0.292,0.3003,0.306,0.3016,0.3028,0.3163,0.3239,0.3003,0.2935,0.2971,0.2745,0.274,0.2684,0.2613,0.2515,0.2573,0.2624,0.2512,0.2063,0.2059,0.2055,0.2052,0,0,0.2792,0.278,0.2796,0.2759,0.2782,0.2737,0.2724,0.2674,0.2699,0.2646,0.2627,0.2843,0.2928,0.2474,0.2412,0.2198,0.2361,0.2104,0.2996,0.2943,0.2988,0.3101,0.3,0,0,0,0,0]},{"header":{"parameterUnit":"m.s-1","parameterCategory":2,"la1":30.2991,"la2":30.254,"lo1":-89.0895,"lo2":-89.0444,"dy":0.0017,"dx":0.0017,"nx":28,"ny":28,"refTime":"2025-05-15T03:00:00:Z","depth":"2","parameterNumber":3,"parameterNumberName":"V-component_of_CURRENTS"},"data":[0,0,0,0,0,0,0,0,0,0,0,0,0,0,0,0,0,0,0,0,0,0,0,0,0,0,0,0,0,0,0,0,0,0,0,0,0,0,0,0,0,0,0,0,0,0,0,0,0,0,0,0,0,0,0,0,0,0,0.0072,0.0071,0,0.0012,0.0011,0.0011,-0.0028,-0.0028,-0.0029,-0.0029,-0.0037,-0.0037,-0.0037,0,0,0,0,0,0,0,0,0,0,0,0,0,0.0129,0.0129,0.0072,0.0071,0.007,0.0012,0.0011,0.0011,-0.0028,-0.0028,-0.0029,-0.0029,-0.0037,-0.0037,-0.0037,0,0,0,0,0,0,0,0,0,0,0,0,0,0.0092,0.0129,0.0072,0.0042,0.0039,0.0012,0.0011,0.0011,-0.0028,-0.0028,-0.0029,-0.003,-0.0037,-0.0037,-0.0037,-0.0022,0,0,-0.0036,-0.0036,0,0,0,0,0,0,0,0,0.0094,0.009,0.0048,0.0044,0.0041,-0.0003,0.0029,0.0002,-0.0028,-0.0,-0.0029,-0.003,-0.0021,-0.0022,-0.003,-0.0023,-0.0023,-0.0036,-0.0035,-0.0035,-0.0035,0,0,0,0,0,0,0,0.0097,0.0093,0.005,0.0047,0.0042,0.0024,0.0018,0.0023,-0.0004,-0.0003,-0.0006,-0.0016,-0.0023,-0.0031,-0.0031,-0.0023,-0.0036,-0.0035,-0.0035,-0.0035,0.001,0.0011,0,0,0,0,0,0,0.0103,0.0095,0.0052,0.0048,0.0064,0.0023,0.0017,0.0013,-0.0006,-0.001,-0.0015,-0.0017,-0.0031,-0.0031,-0.0031,0.0019,-0.0035,-0.0035,-0.0035,0.0009,0.001,0.0011,0,0,0,0,0,0,0.0104,0.01,0.0054,0.0068,0.0061,0.0023,0.0019,0.0012,0.0006,-0.0016,-0.0019,-0.0015,-0.0031,-0.0031,-0.0014,0.0017,-0.0035,-0.0035,0.0008,0.0009,0.0011,0.0098,0,0,0,0,0,0,0.0106,0.0101,0.0105,0.0069,0.006,0.0051,0.0019,0.0012,-0.0,-0.0003,-0.0016,-0.0018,-0.0032,-0.0014,-0.0013,0.0017,-0.0034,0.0006,0.0008,0.001,0.0094,0.0102,0.011,0,0,0,0,0,0.0109,0.0119,0.0106,0.0101,0.0067,0.0051,0.0046,0.0018,0.0001,0.0008,0.0001,-0.0018,-0.0002,-0.0012,-0.0012,0.0019,0.0005,0.0008,0.001,0.009,0.0101,0.0109,0,0,0,0,0,0,0.0147,0.0115,0.01,0.01,0.0082,0.0044,0.0045,0.0025,0.0022,0.0023,-0.0,-0.0001,0.0023,0.0008,-0.0003,0.0035,-0.0003,-0.0,0.0058,0.0068,0.0075,0.0093,-0.0034,0,0,0,0,0,0.0157,0.0157,0.0123,0.0125,0.0118,0.0084,0.0074,0.0057,0.0044,0.0041,0.0033,0.0028,0.0033,0.004,0.0039,0.0066,0.0034,0.0083,0.0091,0.0098,0.0112,0.0092,0.0099,0.0019,0.0019,0.0019,0,0,0.017,0.0154,0.0152,0.0133,0.0116,0.013,0.0078,0.0072,0.0091,0.0044,0.0075,0.0057,0.0045,0.0073,0.0083,0.0066,0.0101,0.0101,0.0107,0.0117,0.0095,0.0103,0.011,0.002,0.002,0.002,0,0,0.0204,0.0185,0.0199,0.0192,0.0173,0.0163,0.0165,0.014,0.0136,0.0157,0.0128,0.0129,0.0139,0.0135,0.0134,0.0185,0.0141,0.0184,0.0246,0.0227,0.0233,0.0239,0.0195,0.0196,0.0192,0.0192,0.0192,0,0.0223,0.0237,0.0203,0.0219,0.0228,0.0186,0.0218,0.0211,0.0199,0.0212,0.0182,0.019,0.0171,0.0206,0.0219,0.0205,0.0178,0.0213,0.0238,0.0243,0.0247,0.0201,0.0201,0.0197,0.0196,0.0196,0.0195,0,0.0269,0.0284,0.0293,0.0309,0.0319,0.0334,0.0325,0.0339,0.033,0.0323,0.0344,0.0306,0.0311,0.0301,0.0278,0.0305,0.0269,0.0247,0.0216,0.026,0.0208,0.0207,0.0203,0.0201,0.02,0.0199,0,0,0.0306,0.0323,0.0328,0.0358,0.0368,0.0386,0.0429,0.0459,0.0496,0.047,0.0509,0.049,0.0454,0.0449,0.0407,0.0387,0.0377,0.0337,0.0334,0.0298,0.032,0.0285,0.0279,0.0361,0.0362,0.0362,0.0267,0,0.0356,0.0411,0.041,0.0485,0.052,0.0514,0.0567,0.0591,0.0593,0.0621,0.0571,0.059,0.0515,0.0515,0.0483,0.0412,0.0379,0.0404,0.0279,0.0275,0.0243,0.0279,0.0283,0.0199,0.0265,0.0264,0.0264,0,0.041,0.0443,0.0514,0.0588,0.0604,0.0649,0.0728,0.0768,0.0791,0.079,0.0781,0.0735,0.0707,0.0628,0.0521,0.0542,0.0442,0.0369,0.0363,0.0304,0.0239,0.0167,0.0192,0.026,0.0261,0.0261,0.0261,0,0.0464,0.0526,0.0591,0.061,0.0679,0.0725,0.0777,0.0824,0.0883,0.0896,0.0929,0.0866,0.0849,0.0725,0.0562,0.0549,0.0428,0.0387,0.0255,0.0249,0.0215,0.0207,0.0307,0.0307,0.0307,0.0308,0.0308,0,0.0524,0.0578,0.0621,0.0654,0.0764,0.0792,0.0911,0.0942,0.1006,0.11,0.1019,0.1054,0.0876,0.078,0.061,0.0431,0.0459,0.0275,0.0234,0.0244,0.0239,0.0265,0.0262,0.0304,0.0305,0.0306,0.0306,0,0.0575,0.0593,0.0675,0.0751,0.0788,0.0871,0.1008,0.1097,0.1135,0.1247,0.1261,0.1208,0.1087,0.088,0.0676,0.051,0.0328,0.0249,0.0259,0.0222,0.0144,0.0146,0.0102,0.01,0.0098,0.0097,0.0096,0,0.0605,0.0646,0.0744,0.0812,0.0851,0.0974,0.1078,0.1158,0.1259,0.1349,0.1413,0.1328,0.1292,0.096,0.065,0.0345,0.031,0.0143,0.0119,0.0164,0.0128,0.0133,0.0136,0.0093,0.0092,0.0091,0.0091,0,0.0667,0.0692,0.0757,0.0895,0.1004,0.1145,0.1289,0.1384,0.1498,0.158,0.1662,0.1635,0.1333,0.1025,0.0602,0.039,0.0192,0.0117,0.0175,0.0152,0.0151,0.0117,0.0122,0.0084,0.0084,0.0085,0.0085,0.0085,0.0714,0.0771,0.0857,0.0996,0.113,0.1303,0.1433,0.1582,0.1743,0.1879,0.1834,0.1793,0.1445,0.0902,0.0527,0.013,0.0162,0.0013,0.0018,0.0023,0.0047,0.0045,-0.004,-0.004,-0.004,-0.004,-0.004,0,0.0775,0.0843,0.0965,0.1128,0.1285,0.1351,0.1574,0.1697,0.1892,0.1986,0.2039,0.1691,0.1337,0.0929,0.0341,0.0003,-0.0022,-0.0116,-0.0073,-0.0063,-0.0055,-0.0034,-0.0144,-0.0146,-0.0147,-0.0148,0,0,0.0809,0.0918,0.0979,0.1226,0.1359,0.1581,0.1715,0.1878,0.1986,0.2068,0.204,0.1964,0.1464,0.102,0.0543,0.0199,0.015,0.0127,0.0246,0.0362,0.0375,0.005,0.0098,0,0,0,0,0]}],[{"header":{"parameterUnit":"m.s-1","parameterCategory":2,"la1":30.2991,"la2":30.254,"lo1":-89.0895,"lo2":-89.0444,"dy":0.0017,"dx":0.0017,"nx":28,"ny":28,"refTime":"2025-05-15T03:00:00:Z","depth":"4","parameterNumber":2,"parameterNumberName":"U-component_of_CURRENTS"},"data":[0,0,0,0,0,0,0,0,0,0,0,0,0,0,0,0,0,0,0,0,0,0,0,0,0,0,0,0,0,0,0,0,0,0,0,0,0,0,0,0,0,0,0,0,0,0,0,0,0,0,0,0,0,0,0,0,0,0,0.2048,0.2048,0,0.2046,0.2046,0.2045,0.2086,0.2088,0.209,0.2091,0.2123,0.2122,0.2121,0,0,0,0,0,0,0,0,0,0,0,0,0,0.199,0.1991,0.2048,0.2049,0.2049,0.2046,0.2046,0.2045,0.2086,0.2088,0.209,0.2092,0.2123,0.2122,0.2121,0,0,0,0,0,0,0,0,0,0,0,0,0,0.1998,0.1991,0.2048,0.2074,0.2077,0.2046,0.2045,0.2045,0.2085,0.2088,0.2091,0.2093,0.2123,0.2122,0.2121,0.2061,0,0,0.2117,0.2117,0,0,0,0,0,0,0,0,0.1998,0.1999,0.207,0.2073,0.2076,0.2075,0.2037,0.2054,0.2085,0.2075,0.2091,0.2094,0.2112,0.2112,0.2096,0.2063,0.2064,0.2117,0.2116,0.2116,0.2115,0,0,0,0,0,0,0,0.1997,0.1999,0.204,0.207,0.2074,0.2054,0.2058,0.2039,0.2074,0.2076,0.2081,0.2091,0.2114,0.2097,0.2097,0.2064,0.2117,0.2116,0.2115,0.2115,0.2193,0.2196,0,0,0,0,0,0,0.2014,0.1999,0.204,0.2041,0.205,0.2054,0.2058,0.2067,0.2074,0.2079,0.2088,0.2093,0.2097,0.2098,0.2098,0.2187,0.2116,0.2115,0.2114,0.2191,0.2194,0.2197,0,0,0,0,0,0,0.2012,0.2017,0.2041,0.2025,0.2028,0.2053,0.2062,0.2066,0.2097,0.2084,0.2089,0.2124,0.2099,0.21,0.2136,0.2183,0.2114,0.2113,0.2187,0.2192,0.2196,0.2264,0,0,0,0,0,0,0.2011,0.2016,0.2043,0.2027,0.203,0.2057,0.2061,0.2064,0.21,0.2106,0.2115,0.2117,0.2101,0.2138,0.2135,0.2181,0.2112,0.2184,0.2189,0.2194,0.2258,0.227,0.228,0,0,0,0,0,0.2008,0.203,0.2044,0.2051,0.2061,0.2059,0.2058,0.2079,0.21,0.2116,0.2135,0.212,0.217,0.2138,0.2134,0.2181,0.2181,0.2188,0.2194,0.2253,0.2267,0.228,0,0,0,0,0,0,0.2019,0.2036,0.2052,0.208,0.2089,0.207,0.2095,0.21,0.2122,0.2149,0.2133,0.2136,0.2191,0.2178,0.2143,0.2226,0.2182,0.2187,0.2228,0.2242,0.2252,0.2254,0.2111,0,0,0,0,0,0.2034,0.206,0.2064,0.2092,0.2104,0.2106,0.2116,0.213,0.214,0.2154,0.216,0.2182,0.2201,0.2218,0.2226,0.2251,0.2257,0.229,0.2301,0.231,0.2313,0.237,0.2386,0.2218,0.2218,0.2218,0,0,0.2047,0.2061,0.2078,0.2098,0.211,0.2116,0.2118,0.2151,0.2167,0.2152,0.2194,0.2215,0.2218,0.2261,0.2286,0.2262,0.2364,0.2318,0.2325,0.2324,0.2379,0.2395,0.2409,0.2222,0.2221,0.2221,0,0,0.2067,0.2102,0.2125,0.2135,0.2169,0.216,0.2181,0.2191,0.2219,0.2247,0.226,0.2307,0.2323,0.2339,0.2346,0.2419,0.242,0.2449,0.25,0.2556,0.257,0.2582,0.2616,0.263,0.2454,0.2454,0.2455,0,0.2088,0.2111,0.2132,0.215,0.2165,0.2185,0.2202,0.2215,0.2239,0.2274,0.2283,0.2352,0.2352,0.2407,0.2447,0.244,0.2477,0.2442,0.2568,0.258,0.2591,0.2623,0.2638,0.2458,0.2458,0.2458,0.2457,0,0.2102,0.2139,0.2156,0.2182,0.2197,0.2222,0.224,0.2282,0.2319,0.2335,0.2422,0.2431,0.2481,0.2498,0.2491,0.2586,0.2589,0.2572,0.2527,0.2612,0.2641,0.2655,0.2464,0.2463,0.2462,0.2461,0,0,0.2095,0.2156,0.2166,0.2189,0.2223,0.2228,0.2281,0.2324,0.2383,0.2425,0.2497,0.254,0.2581,0.2594,0.2611,0.2656,0.2761,0.2665,0.2666,0.2685,0.2897,0.2709,0.2706,0.2787,0.279,0.2792,0.2886,0,0.2104,0.2144,0.2171,0.2207,0.2224,0.2271,0.2309,0.2362,0.2424,0.2501,0.2549,0.2621,0.2607,0.2664,0.2709,0.2755,0.2804,0.2736,0.2824,0.2826,0.2636,0.2717,0.2801,0.2897,0.29,0.2902,0.2904,0,0.2093,0.2126,0.2168,0.223,0.2247,0.2276,0.2368,0.2411,0.2523,0.2586,0.2677,0.272,0.2807,0.2782,0.2893,0.2867,0.2897,0.2913,0.2917,0.2722,0.2663,0.2796,0.293,0.2928,0.2926,0.2924,0.2923,0,0.2047,0.2116,0.2155,0.2172,0.2243,0.2299,0.235,0.2454,0.2516,0.2665,0.2734,0.2834,0.2908,0.2963,0.3003,0.298,0.3112,0.3071,0.2922,0.2909,0.3018,0.3004,0.315,0.315,0.3149,0.3149,0.3149,0,0.201,0.2047,0.2151,0.2166,0.2228,0.2295,0.2389,0.2469,0.26,0.2674,0.2789,0.2857,0.2968,0.3043,0.3057,0.3032,0.316,0.294,0.2924,0.3046,0.3034,0.3028,0.3013,0.3153,0.3152,0.3151,0.3151,0,0.1939,0.2009,0.2059,0.2166,0.2206,0.2256,0.2391,0.2448,0.2603,0.2711,0.2765,0.292,0.3016,0.3086,0.3183,0.3082,0.3084,0.3046,0.3184,0.3173,0.2829,0.2817,0.2872,0.2867,0.2862,0.2858,0.2854,0,0.1898,0.1923,0.2045,0.2071,0.2128,0.2222,0.2272,0.2431,0.2488,0.2715,0.2736,0.2909,0.2986,0.2964,0.3059,0.3067,0.3028,0.2997,0.2888,0.2823,0.2804,0.2799,0.2794,0.2846,0.2845,0.2844,0.2843,0,0.1819,0.1888,0.1929,0.1987,0.2047,0.2102,0.2197,0.2228,0.2408,0.2575,0.2647,0.27,0.2803,0.2853,0.289,0.2886,0.2991,0.2944,0.2953,0.285,0.2792,0.2777,0.2777,0.2825,0.2828,0.283,0.2831,0,0.1768,0.1775,0.1839,0.1867,0.1937,0.1946,0.202,0.208,0.2166,0.2407,0.2436,0.2617,0.2786,0.2763,0.2796,0.2779,0.2719,0.2596,0.2622,0.2642,0.2518,0.2408,0.2318,0,0,0,0,0,0.17,0.1681,0.17,0.1716,0.1778,0.1822,0.1938,0.2017,0.2204,0.2188,0.2305,0.2389,0.2452,0.2546,0.248,0.2684,0.2725,0.2591,0.2595,0.2731,0.2751,0.2623,0,0,0,0,0,0,0.1645,0.167,0.1651,0.1582,0.157,0.1621,0.1697,0.1824,0.1822,0.2029,0.2077,0.2231,0.2329,0.2471,0.2434,0.2458,0.2405,0.2706,0.2699,0.272,0.2738,0.2754,0.263,0,0,0,0,0]},{"header":{"parameterUnit":"m.s-1","parameterCategory":2,"la1":30.2991,"la2":30.254,"lo1":-89.0895,"lo2":-89.0444,"dy":0.0017,"dx":0.0017,"nx":28,"ny":28,"refTime":"2025-05-15T03:00:00:Z","depth":"4","parameterNumber":3,"parameterNumberName":"V-component_of_CURRENTS"},"data":[0,0,0,0,0,0,0,0,0,0,0,0,0,0,0,0,0,0,0,0,0,0,0,0,0,0,0,0,0,0,0,0,0,0,0,0,0,0,0,0,0,0,0,0,0,0,0,0,0,0,0,0,0,0,0,0,0,0,0.0027,0.0026,0,-0.0008,-0.0009,-0.0009,-0.0037,-0.0037,-0.0037,-0.0038,-0.004,-0.004,-0.0039,0,0,0,0,0,0,0,0,0,0,0,0,0,0.0062,0.0061,0.0027,0.0026,0.0025,-0.0008,-0.0009,-0.0009,-0.0037,-0.0037,-0.0038,-0.0038,-0.004,-0.004,-0.0039,0,0,0,0,0,0,0,0,0,0,0,0,0,0.004,0.0061,0.0027,0.0006,0.0004,-0.0008,-0.0009,-0.0009,-0.0036,-0.0037,-0.0038,-0.0038,-0.004,-0.004,-0.0039,-0.0023,0,0,-0.0038,-0.0037,0,0,0,0,0,0,0,0,0.0042,0.0039,0.001,0.0008,0.0005,-0.002,0.0003,-0.0013,-0.0036,-0.0019,-0.0038,-0.0039,-0.0031,-0.0031,-0.0034,-0.0023,-0.0023,-0.0038,-0.0037,-0.0037,-0.0037,0,0,0,0,0,0,0,0.0043,0.0041,0.0015,0.0009,0.0006,-0.0004,-0.0007,-0.0,-0.0019,-0.0021,-0.0023,-0.003,-0.0032,-0.0035,-0.0035,-0.0023,-0.0038,-0.0037,-0.0037,-0.0037,-0.0003,-0.0002,0,0,0,0,0,0,0.0045,0.0042,0.0016,0.0013,0.002,-0.0004,-0.0008,-0.001,-0.002,-0.0023,-0.0029,-0.0031,-0.0035,-0.0035,-0.0035,-0.0003,-0.0037,-0.0037,-0.0036,-0.0003,-0.0003,-0.0002,0,0,0,0,0,0,0.0046,0.0043,0.0017,0.0025,0.0021,-0.0004,-0.0006,-0.001,-0.0013,-0.0027,-0.0029,-0.0028,-0.0036,-0.0035,-0.0019,-0.0004,-0.0036,-0.0036,-0.0004,-0.0003,-0.0002,0.0052,0,0,0,0,0,0,0.0047,0.0044,0.0048,0.0026,0.002,0.0018,-0.0006,-0.0011,-0.0017,-0.0019,-0.0026,-0.0027,-0.0036,-0.0019,-0.0018,-0.0004,-0.0035,-0.0005,-0.0004,-0.0003,0.0049,0.0054,0.0059,0,0,0,0,0,0.0049,0.0057,0.0049,0.0045,0.0026,0.0018,0.0016,-0.0004,-0.0016,-0.001,-0.0012,-0.0027,-0.0012,-0.0018,-0.0017,-0.0002,-0.0005,-0.0004,-0.0003,0.0047,0.0053,0.0059,0,0,0,0,0,0,0.0075,0.0054,0.0045,0.0046,0.0036,0.0013,0.0016,0.0002,0.0003,0.0004,-0.0011,-0.0012,0.0004,-0.0004,-0.001,0.0009,-0.0014,-0.0013,0.0023,0.0029,0.0034,0.0041,-0.0035,0,0,0,0,0,0.0083,0.0084,0.0063,0.0066,0.0062,0.0041,0.0036,0.0024,0.0018,0.0017,0.0014,0.001,0.0011,0.0016,0.0015,0.0035,0.0009,0.0042,0.0046,0.0051,0.0057,0.0026,0.0028,0.0002,0.0002,0.0002,0,0,0.0093,0.0082,0.0082,0.0072,0.0062,0.0073,0.0037,0.0036,0.005,0.0019,0.0044,0.003,0.0019,0.0036,0.0042,0.0033,0.0044,0.0052,0.0056,0.006,0.0027,0.003,0.0032,0.0003,0.0003,0.0003,0,0,0.0118,0.0106,0.0118,0.0115,0.0104,0.0097,0.01,0.0086,0.0083,0.0102,0.0079,0.0072,0.0086,0.0073,0.007,0.0101,0.0068,0.0102,0.0138,0.0108,0.0109,0.0111,0.0081,0.0079,0.0107,0.0107,0.0107,0,0.0132,0.0144,0.0121,0.0135,0.0142,0.0113,0.0138,0.0133,0.013,0.0136,0.012,0.0116,0.0101,0.011,0.0118,0.0111,0.0091,0.0119,0.0114,0.0114,0.0115,0.0084,0.0081,0.011,0.0109,0.0109,0.0109,0,0.0166,0.018,0.0188,0.0201,0.0208,0.0222,0.0215,0.0225,0.0219,0.0211,0.0216,0.0186,0.0183,0.0171,0.0158,0.0156,0.014,0.0121,0.01,0.012,0.0087,0.0083,0.0114,0.0113,0.0112,0.0111,0,0,0.0189,0.0209,0.0213,0.0237,0.0245,0.0258,0.0286,0.0302,0.0323,0.0303,0.0321,0.0297,0.0267,0.0259,0.0227,0.0197,0.0176,0.0169,0.0166,0.0141,0.0113,0.0099,0.0093,0.0158,0.0158,0.0158,0.0089,0,0.0226,0.027,0.0272,0.0328,0.0355,0.035,0.0385,0.0395,0.0392,0.0404,0.0353,0.0358,0.0305,0.0302,0.0263,0.0202,0.0169,0.0196,0.0096,0.0093,0.0078,0.0089,0.0157,0.0086,0.0085,0.0085,0.0084,0,0.0263,0.0291,0.0348,0.0403,0.0415,0.0448,0.0496,0.0525,0.0526,0.052,0.0496,0.0455,0.0413,0.0361,0.0256,0.028,0.0206,0.0145,0.0141,0.0107,0.0072,0.006,0.0077,0.0077,0.0078,0.0078,0.0079,0,0.0295,0.0349,0.04,0.0416,0.0468,0.0502,0.054,0.0562,0.0601,0.0593,0.0605,0.0537,0.0517,0.0409,0.0282,0.0274,0.0159,0.013,0.0042,0.004,0.0049,0.0048,0.0052,0.0053,0.0053,0.0053,0.0053,0,0.0333,0.0376,0.0422,0.0449,0.0532,0.0554,0.0638,0.0655,0.0691,0.0744,0.0671,0.0675,0.053,0.0443,0.0312,0.017,0.0179,0.0051,0.0023,0.0073,0.0076,0.0046,0.0046,0.005,0.0051,0.0051,0.0052,0,0.0359,0.0383,0.045,0.0516,0.0548,0.0611,0.0716,0.0773,0.0792,0.0854,0.0857,0.0791,0.068,0.0518,0.0347,0.0225,0.0077,0.0022,0.0095,0.0072,-0.0031,-0.0027,-0.008,-0.0081,-0.0082,-0.0083,-0.0084,0,0.0375,0.0409,0.0499,0.0553,0.0587,0.0686,0.0762,0.0822,0.0881,0.0922,0.0948,0.0869,0.08,0.0551,0.0369,0.0115,0.0071,-0.0015,-0.0035,-0.0021,-0.0044,-0.0038,-0.0034,-0.0085,-0.0085,-0.0085,-0.0086,0,0.0408,0.0437,0.0491,0.0599,0.0685,0.0793,0.0895,0.0946,0.1019,0.1032,0.1028,0.0901,0.0779,0.0569,0.0376,0.0188,0.0033,-0.0025,-0.0025,-0.0045,-0.0028,-0.0048,-0.0042,-0.0089,-0.0088,-0.0088,-0.0088,0,0.0433,0.0476,0.0547,0.0646,0.0757,0.0866,0.0923,0.0997,0.106,0.1091,0.109,0.0952,0.0879,0.0607,0.0426,0.0243,0.0184,0.0101,0.0093,0.0094,0.0154,0.0202,0.0193,0,0,0,0,0,0.0457,0.0505,0.0593,0.0701,0.0812,0.088,0.0999,0.1046,0.1108,0.1116,0.1108,0.0991,0.074,0.0631,0.0448,0.0386,0.0137,0.016,0.0034,-0.0106,-0.0102,-0.0064,0,0,0,0,0,0,0.0471,0.0546,0.0588,0.0728,0.0811,0.0941,0.1022,0.1066,0.1068,0.1096,0.097,0.0919,0.0676,0.0847,0.0437,0.0383,0.0269,0.0049,0.0043,-0.0108,-0.0104,-0.0101,-0.0061,0,0,0,0,0]}]]